Northeast Philadelphia, PA

10:33 PM EDT on March 24, 2017 (GMT -0400)
Northeast Philadelphia

Weather History for KPNE - January, 2013

Change the Weather History Date:

Friday, January 25, 2013

  Actual Average Record
Temperature  
Mean Temperature 16 °F -  
Max Temperature 21 °F 35 °F 55 °F (2017)
Min Temperature 10 °F 22 °F 7 °F (2004)
Degree Days  
Heating Degree Days 50    
Moisture  
Dew Point 7 °F    
Average Humidity 69    
Maximum Humidity 93    
Minimum Humidity 40    
Precipitation  
Precipitation 2.02 in - - ()
Sea Level Pressure  
Sea Level Pressure 30.27 in    
Wind  
Wind Speed 6 mph (West)    
Max Wind Speed 10 mph    
Max Gust Speed 18 mph    
Visibility 5 miles    
Events Fog , Snow    
Averages and records for this station are not official NWS values.
T = Trace of Precipitation, MM = Missing Value Source: NWS Daily Summary

Daily Weather History Graph

Daily Weather History Graph

Search for Another Location

Airport or City:

Trip Planner

Search our weather history database for the weather conditions in past years. The results will help you decide how hot, cold, wet, or windy it might be!

Date:

Astronomy

Jan. 25, 2013 Rise Set
Actual Time 7:14 AM EST 5:10 PM EST
Civil Twilight 6:45 AM EST 5:40 PM EST
Nautical Twilight 6:12 AM EST 6:12 PM EST
Astronomical Twilight 5:40 AM EST 6:44 PM EST
Moon 4:05 PM EST 5:52 AM EST
Length of Visible Light 10h 54m
Length of Day
9h 56m
Waxing Gibbous, 98% of the Moon is Illuminated
Jan 25
Waxing Gibbous
Jan 26
Full
Feb 3
Last Quarter
Feb 10
New
Feb 17
First Quarter

Hourly Weather History & Observations

Time (EST) Temp. Windchill Dew Point Humidity Pressure Visibility Wind Dir Wind Speed Gust Speed Precip Events Conditions
12:54 AM 17.1 °F 5.0 °F -2.9 °F 41% 30.47 in 10.0 mi NW 10.4 mph - N/A   Clear
1:54 AM 16.0 °F 4.4 °F -2.9 °F 43% 30.48 in 10.0 mi NW 9.2 mph - N/A   Clear
2:54 AM 16.0 °F 3.6 °F -2.9 °F 43% 30.48 in 10.0 mi NW 10.4 mph 18.4 mph N/A   Clear
3:54 AM 15.1 °F 5.2 °F -2.0 °F 47% 30.48 in 10.0 mi NW 6.9 mph - N/A   Clear
4:54 AM 15.1 °F 2.5 °F -0.9 °F 49% 30.48 in 10.0 mi NNW 10.4 mph - N/A   Clear
5:54 AM 14.0 °F 3.9 °F -0.9 °F 52% 30.46 in 10.0 mi WNW 6.9 mph - N/A   Clear
6:54 AM 14.0 °F 6.5 °F -0.0 °F 54% 30.46 in 10.0 mi NNW 4.6 mph - N/A   Clear
7:54 AM 15.1 °F 4.2 °F -0.0 °F 51% 30.45 in 10.0 mi WNW 8.1 mph - N/A   Clear
8:54 AM 16.0 °F 5.3 °F 1.0 °F 52% 30.47 in 10.0 mi WNW 8.1 mph - N/A   Clear
9:54 AM 18.0 °F 11.1 °F 1.0 °F 48% 30.45 in 10.0 mi NNW 4.6 mph - N/A   Clear
10:54 AM 19.0 °F - 1.9 °F 47% 30.40 in 10.0 mi Calm Calm - N/A   Clear
11:54 AM 19.9 °F 14.9 °F 1.0 °F 44% 30.38 in 10.0 mi NW 3.5 mph - N/A   Mostly Cloudy
12:54 PM 21.0 °F - 1.0 °F 42% 30.34 in 10.0 mi Calm Calm - N/A   Mostly Cloudy
1:54 PM 21.9 °F 15.7 °F 1.9 °F 42% 30.29 in 10.0 mi South 4.6 mph - N/A   Overcast
2:54 PM 21.9 °F 14.5 °F 1.0 °F 40% 30.25 in 10.0 mi SSW 5.8 mph - N/A   Overcast
3:47 PM 19.4 °F 9.5 °F 8.6 °F 63% 30.24 in 3.0 mi WSW 8.1 mph - 0.00 in Snow Light Snow
3:54 PM 19.9 °F 9.3 °F 10.9 °F 68% 30.25 in 3.0 mi WSW 9.2 mph - 0.00 in Snow Light Snow
4:01 PM 19.4 °F 11.5 °F 12.2 °F 74% 30.23 in 1.0 mi SSW 5.8 mph - 0.00 in Snow Light Snow
4:17 PM 19.4 °F 12.8 °F 14.0 °F 80% 30.23 in 0.5 mi SSW 4.6 mph - 0.01 in Snow Snow
4:54 PM 18.0 °F 12.7 °F 15.1 °F 88% 30.21 in 0.5 mi South 3.5 mph - 0.03 in Fog , Snow Snow
5:16 PM 17.6 °F - 15.8 °F 93% 30.19 in 0.5 mi Calm Calm - 0.01 in Fog , Snow Snow
5:54 PM 18.0 °F 12.7 °F 15.1 °F 88% 30.18 in 0.5 mi South 3.5 mph - 0.04 in Snow Light Snow
6:02 PM 17.6 °F 12.3 °F 15.8 °F 93% 30.18 in 0.5 mi South 3.5 mph - 0.00 in Snow Light Snow
6:30 PM 19.4 °F 14.3 °F 15.8 °F 86% 30.17 in 0.5 mi SSW 3.5 mph - 0.01 in Snow Light Snow
6:46 PM 19.4 °F 14.3 °F 15.8 °F 86% 30.16 in 0.5 mi Variable 3.5 mph - 0.01 in Snow Light Snow
6:54 PM 18.0 °F 9.8 °F 14.0 °F 84% 30.17 in 0.5 mi South 5.8 mph - 0.01 in Snow Light Snow
7:54 PM 18.0 °F - 12.9 °F 81% 30.16 in 0.5 mi Calm Calm - 0.00 in   Overcast
8:54 PM 14.0 °F - 10.9 °F 88% 30.13 in 0.5 mi Calm Calm - 0.27 in   Clear
9:04 PM 12.2 °F - 8.6 °F 85% 30.12 in 2.5 mi Calm Calm - 0.05 in   Clear
9:19 PM 12.2 °F - 10.4 °F 92% 30.12 in 4.0 mi Calm Calm - 0.23 in   Clear
9:43 PM 12.2 °F - 8.6 °F 85% 30.11 in 5.0 mi Calm Calm - 0.45 in   Mostly Cloudy
9:54 PM 12.0 °F - 9.0 °F 88% 30.11 in 3.0 mi Calm Calm - 0.45 in   Overcast
10:12 PM 10.4 °F - 8.6 °F 92% 30.10 in 1.8 mi Calm Calm - 0.02 in   Mostly Cloudy
10:16 PM 10.4 °F - 8.6 °F 92% 30.10 in 3.0 mi Calm Calm - 0.02 in   Mostly Cloudy
10:25 PM 10.4 °F - 8.6 °F 92% 30.10 in 3.0 mi Calm Calm - 0.03 in   Scattered Clouds
10:54 PM 12.0 °F - 8.1 °F 84% 30.11 in 3.0 mi Calm Calm - 0.36 in   Partly Cloudy
11:54 PM 12.9 °F 5.2 °F 9.0 °F 84% 30.11 in 7.0 mi NNW 4.6 mph - 0.86 in   Clear